Showing default

COSMOS 1912, 18791

Orbit data source: Space-Track

COSMOS 1912, 18791 is a payload satellite owned by UNKS (CIS) in LEO that was launched on Fri, 15 Jan 1988 UTC via a TSIKLON-3 launch vehicle from the Plesetsk Missile And Space Complex (PKMTR). Payload-class satellites include a variety of spacecraft equipped with specific instruments for various scientific and technological missions. These include communications satellites like Starlink; space stations such as the ISS; scientific satellites like the Hubble; Earth observation satellites from companies like Planet Labs, Umbra, and HawkEye 360; GPS; miniature CubeSats for education and research; and military/defense satellites.

Loading next visibility...
Identifier
18791, 1988-002D
Orbit
LEO
Country
Flag of CISCIS
Related business
Manufacturer
NPO PM
Mission
Defense Communications
Bus & Motor
STRELA-3, Unknown motor
Mass
225 kg wet, 225 kg dry
Launch date (UTC)
1988-01-15 (38 years ago)
Launch vehicle
TSIKLON-3
Launch site
Plesetsk Missile And Space Complex (PKMTR)
Object type
Payload
Rocket body
Debris
Shape & HBR
Cyl, 0.8 m
Radar Cross Section
1.257 m², Large (>1 m²)

Expand to show TLE details & history
Last TLE update: 8 hours ago

TLE from 8 hours ago
0 COSMOS 1912
1 18791U 88002D   26036.76328058  .00000054  00000-0  23182-3 0  9998
2 18791  82.6133 322.4765 0011523  44.5682  13.2842 12.65067414757275
Epoch: 2026-02-05T18:19Z
TLE epoch observation values (Epoch: 2026-02-05T18:19:07.442Z)
Latitude
57.22396°
Longitude
-76.65776°
Altitude
1,402.922 km
Speed
7.168 km/s
True Right ascension
22h 16m 08s
True Declination
57° 04' 49"
Sunlit
Object was in daylight at epoch
Visualization orbit readout
Latitude
Unknown
Longitude
Unknown
Altitude
Unknown
Speed
Unknown
Apparent Right ascension
Unknown
Apparent Declination
Unknown
Sunlit
N/A
Visualization observer readout
Local Sidereal Time
04:38:44
Azimuth
Unknown
Elevation
Unknown
Doppler factor
Unknown
Orbital elements
Apogee altitude
1,408.376 km
Perigee altitude
1,390.452 km
Semi-major axis
7,777.551 km
Eccentricity
0.00115
Inclination
82.6133°
RAAN
322.4765°
Arg. of periapsis
44.5682°
True anomaly
13.31458°
Mean anomaly
13.2842°
Eccentric anomaly
13.29939°
Mean motion
3.16431 °/min
Orbital period
113.77 mins
BSTAR
0.00023182
Loading maneuver chart data...
Computing Atmospheric mass density...
Loading historical data...
Loading historical data...
Loading historical data...
Loading historical data...
Loading historical data...
Loading historical data...
Loading historical data...

Documentation

Showing up to 5 results
|